Date,TemperatureHighF,TemperatureAvgF,TemperatureLowF,DewpointHighF,DewpointAvgF,DewpointLowF,HumidityHigh,HumidityAvg,HumidityLow,PressureMaxIn,PressureMinIn,WindSpeedMaxMPH,WindSpeedAvgMPH,GustSpeedMaxMPH,PrecipitationSumIn
2013-1-1,34.9,24.4,9.7,32.0,32.0,32.0,25,22,20,28.61,28.44,7,3,13,0.00
2013-1-2,23.0,12.2,1.2,32.0,32.0,32.0,24,23,22,28.79,28.59,8,2,13,0.00
2013-1-3,22.6,8.6,-2.6,32.0,32.0,32.0,24,24,22,28.79,28.67,7,1,11,0.00
2013-1-4,36.7,25.5,13.8,32.0,32.0,32.0,35,24,19,28.67,28.53,8,3,13,0.00
2013-1-5,39.6,28.9,20.3,32.0,32.0,32.0,22,21,18,28.94,28.56,8,2,14,0.00
2013-1-6,39.6,28.8,20.7,32.0,32.0,32.0,44,25,18,28.88,28.64,8,2,10,0.00
2013-1-7,33.8,28.8,21.0,32.0,32.0,32.0,32,25,20,29.06,28.70,5,1,8,0.00
2013-1-8,30.2,29.6,29.1,32.0,32.0,32.0,20,20,20,29.09,29.06,2,0,3,0.00
2013-1-9,38.1,32.1,24.4,32.0,32.0,32.0,33,23,19,29.09,28.73,10,3,17,0.00
2013-1-10,43.2,35.1,28.0,32.0,32.0,32.0,21,19,18,29.23,28.76,10,3,20,0.00
2013-1-11,35.6,30.5,24.6,32.0,32.0,32.0,48,26,19,29.23,28.91,6,1,7,0.00
2013-1-12,39.9,36.1,32.7,32.0,32.0,32.0,82,65,48,28.94,28.85,6,1,8,0.00
2013-1-13,45.0,40.6,36.3,41.0,36.0,32.0,84,83,82,28.88,28.73,9,2,14,0.00
2013-1-14,52.0,42.2,32.5,45.0,35.4,32.0,83,51,11,29.00,28.61,8,2,10,0.00
2013-1-15,37.8,31.2,27.0,32.0,32.0,32.0,26,20,19,29.03,28.94,3,0,4,0.00
2013-1-16,31.3,29.2,26.8,32.0,32.0,32.0,58,34,20,28.97,28.56,4,0,4,0.00
2013-1-17,36.7,28.6,21.0,32.0,32.0,32.0,64,33,19,28.82,28.56,7,0,9,0.00
2013-1-18,22.8,15.4,8.4,32.0,32.0,32.0,24,23,22,29.09,28.76,9,1,9,0.00
2013-1-19,39.9,30.7,15.6,32.0,32.0,32.0,24,20,18,29.00,28.59,12,6,17,0.00
2013-1-20,43.0,32.7,21.2,32.0,32.0,32.0,22,20,18,28.64,28.29,13,5,17,0.00
2013-1-21,22.6,18.0,12.4,32.0,32.0,32.0,29,23,22,28.76,28.50,7,2,10,0.00
2013-1-22,23.2,13.3,4.5,32.0,32.0,32.0,35,28,22,28.73,28.44,8,1,15,0.00
2013-1-23,14.0,4.1,-2.6,32.0,32.0,32.0,24,24,24,28.76,28.70,7,2,10,0.00
2013-1-24,16.0,3.8,-5.1,32.0,32.0,32.0,24,24,23,28.88,28.73,8,2,13,0.00
2013-1-25,18.7,9.1,0.5,32.0,32.0,32.0,24,24,23,28.97,28.73,7,2,8,0.00
2013-1-26,21.6,11.0,3.9,32.0,32.0,32.0,24,24,22,28.91,28.67,8,2,9,0.00
2013-1-27,27.0,14.0,5.2,32.0,32.0,32.0,24,23,21,29.15,28.91,8,2,13,0.00
2013-1-28,23.2,18.6,11.1,32.0,32.0,32.0,35,27,22,29.12,28.70,6,0,8,0.00
2013-1-29,32.9,27.2,20.5,32.0,32.0,32.0,47,34,23,28.88,28.70,4,0,6,0.00
2013-1-30,54.1,44.2,31.1,50.0,40.7,32.0,86,79,48,28.85,28.20,12,4,22,0.48
2013-1-31,56.7,40.1,23.5,52.0,38.0,32.0,82,43,18,28.32,27.76,18,5,24,2.99
2013-2-1,29.3,21.5,15.4,32.0,32.0,32.0,24,22,20,28.76,28.32,10,4,15,0.00
2013-2-2,28.0,18.3,10.0,32.0,32.0,32.0,25,23,21,28.88,28.70,9,3,10,0.00
2013-2-3,29.1,21.1,13.5,32.0,32.0,32.0,34,25,20,28.73,28.44,4,0,5,0.00
2013-2-4,25.5,18.1,12.9,32.0,32.0,32.0,29,23,21,28.61,28.41,9,3,13,0.00
2013-2-5,28.8,20.0,12.0,32.0,32.0,32.0,30,23,20,28.70,28.61,6,1,7,0.00
2013-2-6,32.7,24.2,17.2,32.0,32.0,32.0,43,28,20,28.97,28.61,8,2,14,0.00
2013-2-7,28.6,19.4,10.6,32.0,32.0,32.0,24,23,20,29.18,28.97,6,0,8,0.00
2013-2-8,23.5,18.4,12.6,32.0,32.0,32.0,41,33,22,29.15,28.44,8,3,12,0.00
2013-2-9,19.2,13.5,8.8,32.0,32.0,32.0,44,33,23,28.91,28.41,8,4,15,0.00
2013-2-10,32.9,16.2,3.6,32.0,32.0,32.0,24,23,20,29.09,28.91,6,0,6,0.00
2013-2-11,38.3,28.4,18.7,36.0,32.3,32.0,87,51,22,29.03,28.38,6,1,11,0.44
2013-2-12,39.4,32.7,29.7,32.0,32.0,32.0,86,43,18,28.61,28.38,10,2,12,0.00
2013-2-13,40.3,30.3,27.1,32.0,32.0,32.0,23,20,18,28.59,28.44,6,1,8,0.00
2013-2-14,42.1,30.2,21.9,32.0,32.0,32.0,25,21,18,28.70,28.44,4,1,8,0.00
2013-2-15,48.6,34.2,26.2,32.0,32.0,32.0,43,24,16,28.70,28.64,11,2,13,0.00
2013-2-16,38.5,30.6,22.3,32.0,32.0,32.0,41,25,19,28.70,28.47,6,1,9,0.00
2013-2-17,22.1,16.3,8.8,32.0,32.0,32.0,24,23,22,28.47,28.17,10,4,15,0.00
2013-2-18,27.3,14.6,6.3,32.0,32.0,32.0,24,23,21,28.82,28.41,10,4,14,0.00
2013-2-19,41.7,30.1,14.5,32.0,32.0,32.0,75,34,18,28.85,28.32,11,3,12,0.16
2013-2-20,34.5,25.9,19.4,32.0,32.0,32.0,75,32,20,28.50,28.29,10,3,15,0.04
2013-2-21,32.7,21.6,16.2,32.0,32.0,32.0,23,22,20,28.94,28.47,8,3,12,0.00
2013-2-22,43.2,27.7,14.9,32.0,32.0,32.0,35,23,18,29.09,28.94,6,1,9,0.00
2013-2-23,32.2,29.9,27.3,32.0,32.0,32.0,44,30,20,29.03,28.64,5,0,8,0.00
2013-2-24,34.9,32.0,29.8,32.0,32.0,32.0,50,41,30,28.64,28.47,3,0,6,0.00
2013-2-25,35.8,31.0,26.1,32.0,32.0,32.0,42,36,22,28.94,28.61,2,0,4,0.00
2013-2-26,44.1,32.8,28.6,32.0,32.0,32.0,42,33,18,29.03,28.85,4,0,6,0.16
2013-2-27,35.6,32.4,30.7,32.0,32.0,32.0,55,48,31,28.88,28.35,7,2,10,0.24
2013-2-28,38.1,32.8,30.0,32.0,32.0,32.0,54,46,33,28.38,28.29,2,0,3,0.32
2013-3-1,36.9,32.9,29.7,32.0,32.0,32.0,59,30,19,28.44,28.29,6,1,9,0.00
2013-3-2,35.6,30.9,27.5,32.0,32.0,32.0,28,23,19,28.44,28.38,5,1,8,0.00
2013-3-3,36.0,28.7,24.4,32.0,32.0,32.0,33,25,19,28.38,28.32,6,1,8,0.00
2013-3-4,34.2,27.5,22.3,32.0,32.0,32.0,31,22,20,28.53,28.35,8,3,13,0.00
2013-3-5,43.7,31.0,22.3,32.0,32.0,32.0,33,23,18,28.79,28.53,6,1,8,0.00
2013-3-6,34.3,31.8,28.9,32.0,32.0,32.0,45,36,28,28.85,28.76,6,2,10,0.00
2013-3-7,33.3,29.3,26.4,32.0,32.0,32.0,43,36,23,28.82,28.73,7,3,10,0.00
2013-3-8,35.8,30.4,26.4,32.0,32.0,32.0,44,32,19,28.91,28.67,6,1,10,0.00
2013-3-9,49.3,33.6,22.1,32.0,32.0,32.0,33,24,16,29.06,28.88,6,0,6,0.24
2013-3-10,48.4,35.0,25.2,32.0,32.0,32.0,34,23,16,29.12,28.97,5,1,8,0.00
2013-3-11,44.8,37.8,30.6,32.0,32.0,32.0,43,28,17,29.00,28.85,10,4,14,0.00
2013-3-12,48.6,43.9,39.0,45.0,38.0,32.0,86,75,38,28.88,28.47,9,3,12,0.80
2013-3-13,45.1,36.4,30.2,36.0,32.2,32.0,84,43,14,28.53,28.47,9,1,10,0.00
2013-3-14,30.7,24.9,16.3,32.0,32.0,32.0,23,21,20,28.56,28.44,7,2,10,0.00
2013-3-15,38.5,24.9,13.1,32.0,32.0,32.0,37,24,19,28.56,28.38,10,4,14,0.00
2013-3-16,37.4,27.7,19.8,32.0,32.0,32.0,32,21,19,28.59,28.41,6,1,8,0.00
2013-3-17,37.8,25.0,17.8,32.0,32.0,32.0,23,21,19,29.00,28.59,8,2,12,0.00
2013-3-18,38.5,24.4,8.8,32.0,32.0,32.0,29,22,19,29.12,28.91,6,0,9,0.00
2013-3-19,32.4,27.9,23.2,32.0,32.0,32.0,42,37,29,28.91,28.41,6,2,14,0.00
2013-3-20,34.3,25.7,19.4,32.0,32.0,32.0,39,26,20,28.53,28.44,8,2,13,0.00
2013-3-21,39.4,27.0,17.8,32.0,32.0,32.0,25,21,18,28.53,28.32,6,0,6,0.00
2013-3-22,40.3,27.1,18.5,32.0,32.0,32.0,23,21,18,28.47,28.35,7,2,11,0.00
2013-3-23,39.0,29.3,20.8,32.0,32.0,32.0,30,21,19,28.53,28.41,9,2,15,0.00
2013-3-24,45.1,33.2,27.5,32.0,32.0,32.0,21,20,17,28.59,28.47,8,2,16,0.08
2013-3-25,45.0,33.1,25.9,32.0,32.0,32.0,21,20,17,28.53,28.29,5,1,7,0.00
2013-3-26,43.7,35.2,29.5,32.0,32.0,32.0,23,20,18,28.56,28.32,7,1,7,0.00
2013-3-27,52.0,37.3,27.3,32.0,32.0,32.0,21,19,16,28.64,28.50,7,1,13,0.00
2013-3-28,50.7,37.6,32.4,32.0,32.0,32.0,40,25,16,28.79,28.61,6,1,8,0.00
2013-3-29,56.1,40.8,33.3,32.0,32.0,32.0,30,20,16,28.79,28.73,7,1,8,0.00
2013-3-30,53.2,40.4,31.8,32.0,32.0,32.0,23,20,16,28.85,28.76,7,1,9,0.00
2013-3-31,54.5,40.6,29.5,32.0,32.0,32.0,42,22,16,28.85,28.50,10,2,14,0.00
2013-4-1,53.6,38.0,27.5,32.0,32.0,32.0,70,39,18,28.53,28.29,8,2,13,0.40
2013-4-2,34.7,27.9,22.6,32.0,32.0,32.0,22,21,20,28.64,28.53,10,4,19,0.00
2013-4-3,41.9,31.0,22.5,32.0,32.0,32.0,22,20,18,28.88,28.61,12,4,15,0.00
2013-4-4,50.4,37.2,23.9,32.0,32.0,32.0,22,20,17,29.00,28.76,10,3,13,0.00
2013-4-5,58.5,41.9,32.5,32.0,32.0,32.0,20,19,16,28.76,28.44,8,3,14,0.00
2013-4-6,41.2,32.7,24.3,32.0,32.0,32.0,22,20,18,29.03,28.64,8,2,12,0.00
2013-4-7,54.5,40.3,28.0,32.0,32.0,32.0,34,20,17,29.03,28.73,13,5,20,0.00
2013-4-8,61.5,48.4,38.1,32.0,32.0,32.0,51,26,16,28.82,28.70,7,2,12,0.00
2013-4-9,64.4,51.3,40.1,34.0,32.0,32.0,51,24,15,28.82,28.64,9,1,11,0.00
2013-4-10,58.5,48.9,43.0,34.0,32.0,32.0,63,35,17,28.73,28.61,5,0,5,2.73
2013-4-11,47.8,41.3,34.3,34.0,32.4,32.0,72,39,17,28.88,28.59,5,1,8,0.08
2013-4-12,35.1,32.2,30.4,32.0,32.0,32.0,57,42,22,28.88,28.56,5,1,10,0.00
2013-4-13,49.5,38.7,31.3,32.0,32.0,32.0,59,36,16,28.67,28.53,5,0,8,0.60
2013-4-14,50.2,39.0,32.0,32.0,32.0,32.0,39,24,16,28.94,28.64,7,1,11,0.00
2013-4-15,56.5,43.0,29.8,32.0,32.0,32.0,31,21,16,29.09,28.94,8,1,9,0.00
2013-4-16,64.2,48.8,35.4,32.0,32.0,32.0,43,21,16,29.09,28.82,16,6,21,0.00
2013-4-17,62.8,51.4,40.1,39.0,32.2,32.0,62,22,16,29.06,28.82,7,2,9,0.00
2013-4-18,64.2,49.0,36.9,32.0,32.0,32.0,24,18,16,29.15,28.88,10,3,15,0.00
2013-4-19,69.3,58.9,48.2,52.0,35.4,32.0,84,39,15,28.88,28.41,15,6,25,0.20
2013-4-20,61.3,45.7,34.0,43.0,32.5,32.0,52,27,16,28.94,28.41,10,2,14,0.52
2013-4-21,51.4,38.8,28.6,32.0,32.0,32.0,20,19,16,29.35,28.94,5,1,8,0.00
2013-4-22,56.8,41.1,29.1,32.0,32.0,32.0,22,19,16,29.41,29.26,6,1,10,0.00
2013-4-23,37.8,35.4,32.5,32.0,32.0,32.0,63,37,22,29.26,28.85,4,0,6,0.00
2013-4-24,70.7,54.0,37.2,34.0,32.0,32.0,71,37,14,28.85,28.53,12,3,15,0.00
2013-4-25,59.4,49.6,39.2,32.0,32.0,32.0,46,21,16,29.00,28.56,9,2,13,0.00
2013-4-26,64.2,48.2,36.3,32.0,32.0,32.0,19,18,16,29.12,29.00,7,1,8,0.00
2013-4-27,65.8,51.0,36.9,32.0,32.0,32.0,19,17,15,29.12,29.00,9,0,9,0.00
2013-4-28,70.9,54.7,37.9,32.0,32.0,32.0,26,17,14,29.03,28.91,8,1,12,0.00
2013-4-29,69.3,54.7,45.1,32.0,32.0,32.0,20,17,15,28.97,28.91,9,3,12,0.00
2013-4-30,71.6,57.6,47.3,32.0,32.0,32.0,19,17,14,29.06,28.94,7,1,8,0.00
2013-5-1,74.7,57.0,40.6,32.0,32.0,32.0,19,16,13,29.18,29.06,6,1,10,0.00
2013-5-2,81.0,58.8,44.8,32.0,32.0,32.0,19,16,12,29.18,29.03,4,1,9,0.00
2013-5-3,67.5,52.0,37.4,32.0,32.0,32.0,30,18,15,29.21,29.09,4,1,6,0.00
2013-5-4,72.0,54.5,40.1,32.0,32.0,32.0,35,21,14,29.09,28.97,7,1,8,0.00
2013-5-5,70.9,51.3,34.0,32.0,32.0,32.0,27,18,14,29.00,28.94,6,1,9,0.00
2013-5-6,73.2,55.2,36.7,32.0,32.0,32.0,39,21,14,28.97,28.82,7,1,8,0.00
2013-5-7,81.3,63.5,46.0,32.0,32.0,32.0,37,19,12,28.88,28.79,7,1,10,0.00
2013-5-8,72.9,60.6,52.9,48.0,34.4,32.0,66,32,14,28.91,28.76,7,1,8,1.43
2013-5-9,64.6,58.6,54.5,50.0,39.2,32.0,71,49,16,28.76,28.61,4,0,5,0.32
2013-5-10,76.5,62.8,50.2,46.0,33.9,32.0,64,30,13,28.70,28.61,7,1,8,0.00
2013-5-11,62.6,59.8,56.8,52.0,39.5,32.0,76,45,16,28.64,28.44,10,3,13,2.48
2013-5-12,63.9,54.5,42.1,52.0,38.0,32.0,77,40,16,28.53,28.35,9,1,9,0.00
2013-5-13,52.7,43.1,35.6,32.0,32.0,32.0,20,19,18,28.73,28.53,9,1,11,0.00
2013-5-14,55.2,44.6,35.8,32.0,32.0,32.0,19,19,17,28.73,28.70,6,1,10,0.00
2013-5-15,63.3,48.0,35.1,32.0,32.0,32.0,47,25,16,28.76,28.41,10,2,13,0.48
2013-5-16,74.3,61.4,46.4,36.0,32.2,32.0,58,23,13,28.53,28.38,10,2,17,0.00
2013-5-17,66.9,55.4,44.4,32.0,32.0,32.0,20,17,15,28.91,28.53,6,1,12,0.00
2013-5-18,71.1,56.8,41.9,32.0,32.0,32.0,21,17,14,29.00,28.91,7,1,8,0.00
2013-5-19,69.4,55.5,47.1,39.0,32.5,32.0,58,28,15,29.03,28.91,8,1,12,0.00
2013-5-20,76.3,63.4,53.1,52.0,37.4,32.0,74,40,13,28.91,28.67,7,1,9,0.00
2013-5-21,85.3,65.1,48.9,39.0,32.9,32.0,44,26,11,28.79,28.61,6,1,10,0.67
2013-5-22,73.0,58.1,48.9,52.0,38.5,32.0,70,50,21,28.79,28.59,6,1,9,2.96
2013-5-23,70.2,62.0,54.3,57.0,49.3,32.0,77,65,24,28.64,28.53,8,2,11,1.20
2013-5-24,65.1,56.9,43.9,57.0,43.7,32.0,77,55,23,28.56,28.38,6,1,14,0.24
2013-5-25,46.8,42.1,36.0,32.0,32.0,32.0,58,46,35,28.56,28.44,5,0,8,0.64
2013-5-26,52.0,42.6,34.2,32.0,32.0,32.0,47,29,18,28.79,28.44,6,2,10,0.00
2013-5-27,66.2,52.1,36.5,32.0,32.0,32.0,43,25,15,28.88,28.76,5,1,9,0.00
2013-5-28,72.0,58.3,45.3,32.0,32.0,32.0,20,17,14,28.94,28.85,5,1,8,0.00
2013-5-29,67.6,59.6,54.9,52.0,39.0,32.0,70,45,20,28.88,28.70,6,0,8,0.80
2013-5-30,81.9,70.3,59.4,59.0,40.5,32.0,75,38,12,28.82,28.76,7,1,11,0.00
2013-5-31,88.3,75.7,62.8,39.0,33.2,32.0,39,21,11,28.85,28.70,7,1,10,0.00
2013-6-1,88.7,74.8,64.0,52.0,34.5,32.0,51,23,11,28.73,28.61,7,1,10,2.32
2013-6-2,85.6,73.2,65.8,45.0,36.3,32.0,46,27,11,28.61,28.44,10,3,17,0.08
2013-6-3,74.7,65.3,51.8,52.0,40.0,32.0,62,35,13,28.56,28.50,7,1,12,0.12
2013-6-4,66.2,56.2,45.1,32.0,32.0,32.0,20,17,15,28.76,28.56,6,1,10,0.00
2013-6-5,72.3,59.5,47.5,32.0,32.0,32.0,28,18,14,28.85,28.76,6,0,8,0.00
2013-6-6,70.9,60.1,51.6,32.0,32.0,32.0,36,20,14,28.85,28.76,7,1,13,0.00
2013-6-7,53.1,51.1,48.7,43.0,35.3,32.0,74,52,36,28.76,28.50,4,0,6,1.64
2013-6-8,70.9,58.3,48.6,48.0,36.7,32.0,76,45,14,28.67,28.32,5,1,8,1.43
2013-6-9,73.6,62.9,53.1,34.0,32.0,32.0,42,24,13,28.82,28.67,6,1,10,0.00
2013-6-10,69.3,60.5,54.9,41.0,33.1,32.0,59,30,15,28.82,28.61,4,0,7,0.75
2013-6-11,58.3,55.3,52.3,48.0,44.9,41.0,74,67,58,28.61,28.23,3,0,6,1.67
2013-6-12,62.8,57.1,52.9,46.0,36.0,32.0,71,37,16,28.47,28.20,7,1,8,0.36
2013-6-13,59.4,53.1,49.5,37.0,33.0,32.0,61,43,27,28.47,28.32,4,0,5,0.76
2013-6-14,69.3,57.2,47.5,45.0,35.5,32.0,71,41,15,28.44,28.29,3,0,7,0.84
2013-6-15,73.2,62.3,49.8,32.0,32.0,32.0,28,17,14,28.56,28.44,6,1,10,0.00
2013-6-16,72.3,62.1,52.3,32.0,32.0,32.0,26,17,14,28.56,28.35,7,1,10,0.00
2013-6-17,80.2,64.5,56.5,36.0,32.9,32.0,41,28,12,28.53,28.41,7,1,13,0.32
2013-6-18,65.1,58.5,54.0,46.0,37.3,32.0,59,45,30,28.56,28.50,3,0,8,0.88
2013-6-19,70.7,59.4,49.5,39.0,33.8,32.0,61,31,14,28.73,28.53,5,0,6,0.00
2013-6-20,75.6,62.6,49.3,32.0,32.0,32.0,30,17,13,28.85,28.73,7,1,8,0.00
2013-6-21,80.4,67.7,55.0,32.0,32.0,32.0,35,19,12,28.85,28.79,5,1,7,0.00
2013-6-22,81.1,69.8,59.2,32.0,32.0,32.0,34,20,12,28.82,28.70,8,2,11,0.00
2013-6-23,87.4,74.1,61.9,37.0,32.2,32.0,29,18,11,28.76,28.61,8,3,11,0.00
2013-6-24,89.1,74.9,66.9,54.0,39.0,32.0,60,30,11,28.64,28.53,6,2,9,1.22
2013-6-25,86.4,72.9,64.2,55.0,39.5,32.0,64,32,11,28.59,28.38,7,1,11,2.99
2013-6-26,74.8,68.6,64.8,61.0,45.9,32.0,70,47,21,28.47,28.35,5,0,5,0.40
2013-6-27,73.4,67.4,62.6,54.0,44.4,32.0,65,45,22,28.47,28.35,4,0,5,0.00
2013-6-28,76.5,65.4,57.0,61.0,46.1,32.0,72,53,18,28.35,28.11,8,1,10,1.26
2013-6-29,79.0,71.0,66.7,59.0,43.2,32.0,71,40,12,28.35,28.14,9,2,14,0.00
2013-6-30,82.0,71.7,66.9,50.0,41.1,32.0,51,34,12,28.56,28.35,6,2,10,0.00
2013-7-1,72.1,69.9,68.2,61.0,53.3,39.0,70,57,31,28.67,28.56,4,0,8,1.54
2013-7-2,78.1,71.1,65.8,61.0,47.2,32.0,71,47,20,28.79,28.67,6,1,12,0.00
2013-7-3,82.9,72.5,64.0,59.0,40.7,32.0,68,34,14,28.82,28.73,6,1,8,0.00
2013-7-4,87.3,77.4,70.7,54.0,39.2,32.0,53,27,13,28.85,28.73,8,2,11,0.00
2013-7-5,89.1,78.8,70.5,52.0,37.8,32.0,50,25,13,28.79,28.67,7,2,9,0.00
2013-7-6,85.8,75.7,68.4,46.0,35.8,32.0,41,22,11,28.73,28.61,7,1,8,0.00
2013-7-7,87.6,74.2,66.0,41.0,33.5,32.0,34,21,13,28.67,28.56,7,0,8,0.00
2013-7-8,87.3,75.3,67.5,48.0,37.6,32.0,44,26,11,28.67,28.56,7,0,8,6.26
2013-7-9,78.3,68.8,64.2,50.0,42.4,32.0,56,40,18,28.70,28.64,4,0,7,0.00
2013-7-10,79.5,70.4,65.3,59.0,47.3,34.0,66,45,20,28.67,28.44,7,2,10,1.26
2013-7-11,79.5,72.3,65.8,61.0,44.7,32.0,68,41,15,28.56,28.38,5,1,8,0.00
2013-7-12,79.5,68.6,62.4,32.0,32.0,32.0,26,19,12,28.79,28.56,4,0,8,0.00
2013-7-13,74.1,67.6,61.9,43.0,35.4,32.0,40,27,18,28.91,28.79,4,0,6,0.00
2013-7-14,87.8,75.4,68.4,59.0,39.1,32.0,63,30,13,28.91,28.82,5,0,7,0.00
2013-7-15,88.7,77.6,69.3,43.0,35.3,32.0,37,21,11,28.82,28.73,5,1,8,0.00
2013-7-16,89.6,77.4,69.6,32.0,32.0,32.0,23,17,11,28.79,28.73,4,0,6,0.00
2013-7-17,90.9,78.6,68.2,37.0,32.3,32.0,29,18,11,28.79,28.64,6,1,8,0.00
2013-7-18,92.3,79.4,72.0,43.0,34.6,32.0,33,20,11,28.64,28.56,5,1,8,0.00
2013-7-19,92.3,80.7,70.3,43.0,35.5,32.0,36,21,12,28.59,28.35,9,3,14,0.00
2013-7-20,86.2,76.0,66.2,36.0,32.1,32.0,28,16,11,28.44,28.32,7,1,13,0.00
2013-7-21,81.7,71.0,61.9,36.0,32.4,32.0,34,21,12,28.59,28.44,5,0,6,0.00
2013-7-22,81.9,71.0,64.2,39.0,34.3,32.0,37,26,12,28.61,28.50,5,0,8,0.00
2013-7-23,76.8,68.7,64.6,61.0,44.3,32.0,65,44,20,28.50,28.17,4,0,5,1.43
2013-7-24,78.1,69.2,57.0,54.0,39.3,32.0,62,31,13,28.56,28.23,6,1,8,0.00
2013-7-25,70.3,59.7,52.7,34.0,32.0,32.0,36,21,14,28.67,28.56,4,0,6,0.00
2013-7-26,68.0,62.1,57.2,46.0,35.0,32.0,58,35,20,28.64,28.56,4,0,6,0.24
2013-7-27,79.9,67.2,55.0,39.0,32.6,32.0,45,25,12,28.64,28.59,6,1,10,0.00
2013-7-28,81.3,68.9,59.7,45.0,35.8,32.0,43,30,13,28.61,28.56,5,0,6,0.00
2013-7-29,81.7,71.5,65.1,52.0,38.5,32.0,56,30,12,28.64,28.56,7,1,12,0.00
2013-7-30,77.5,67.6,58.3,32.0,32.0,32.0,22,15,13,28.67,28.61,6,1,9,0.00
2013-7-31,79.5,67.8,58.6,32.0,32.0,32.0,30,18,12,28.70,28.61,6,0,6,0.00
2013-8-1,77.7,65.4,58.8,41.0,34.0,32.0,45,29,13,28.61,17.72,9,1,11,0.36
2013-8-2,77.7,67.7,61.7,52.0,37.9,32.0,62,32,13,17.72,17.72,6,1,9,0.40
2013-8-3,74.8,65.9,58.8,36.0,32.2,32.0,37,21,13,28.35,17.72,7,1,12,0.00
2013-8-4,75.4,63.3,54.5,32.0,32.0,32.0,30,18,13,17.72,17.72,5,1,8,0.00
2013-8-5,70.3,60.7,52.3,32.0,32.0,32.0,31,19,14,17.72,17.72,6,2,11,0.00
2013-8-6,77.0,63.2,52.7,32.0,32.0,32.0,21,16,13,17.72,17.72,6,1,11,0.00
2013-8-7,77.9,66.0,56.7,34.0,32.0,32.0,37,21,13,17.72,17.72,7,1,10,0.00
2013-8-8,77.2,69.5,63.0,54.0,36.0,32.0,58,29,15,17.72,17.72,8,3,11,0.00
2013-8-9,71.6,69.4,68.2,61.0,54.7,39.0,67,60,33,17.72,17.72,9,2,10,3.39
2013-8-10,76.8,67.5,57.6,57.0,39.8,32.0,67,34,13,17.72,17.72,7,1,10,0.00
2013-8-11,75.4,62.8,51.1,32.0,32.0,32.0,36,20,13,17.72,17.72,4,0,8,0.00
2013-8-12,78.3,66.0,55.8,32.0,32.0,32.0,35,22,13,17.72,17.72,4,0,8,0.00
2013-8-13,68.4,64.9,62.2,50.0,38.7,32.0,58,38,25,17.72,17.72,3,0,6,0.64
2013-8-14,68.4,60.1,51.3,50.0,34.2,32.0,61,27,15,17.72,17.72,6,1,10,0.00
2013-8-15,72.3,59.9,49.3,32.0,32.0,32.0,37,22,14,17.72,17.72,6,0,8,0.00
2013-8-16,75.7,62.5,51.6,32.0,32.0,32.0,33,20,13,17.72,17.72,5,0,8,0.00
2013-8-17,77.9,64.8,54.1,32.0,32.0,32.0,35,19,13,17.72,17.72,4,0,6,0.00
2013-8-18,79.3,66.2,58.5,36.0,32.1,32.0,37,23,12,17.72,17.72,5,0,7,0.00
2013-8-19,77.7,66.7,58.3,36.0,32.6,32.0,38,24,13,17.72,17.72,4,0,7,0.00
2013-8-20,82.2,69.9,60.3,32.0,32.0,32.0,32,19,12,17.72,17.72,4,0,5,0.00
2013-8-21,84.2,71.3,61.3,34.0,32.0,32.0,31,19,11,17.72,17.72,5,0,6,0.00
2013-8-22,84.9,72.5,61.7,41.0,33.4,32.0,36,22,11,17.72,17.72,7,1,9,0.00
2013-8-23,78.4,67.7,57.7,39.0,32.5,32.0,35,20,13,17.72,17.72,5,1,8,0.00
2013-8-24,77.0,63.0,51.8,32.0,32.0,32.0,26,17,13,17.72,17.72,4,0,6,0.00
2013-8-25,79.3,65.9,53.1,32.0,32.0,32.0,32,18,12,17.72,17.72,6,1,10,0.00
2013-8-26,76.5,67.2,59.5,37.0,32.4,32.0,38,23,13,17.72,17.72,9,2,10,0.00
2013-8-27,81.5,71.1,65.5,54.0,38.1,32.0,56,31,12,17.72,17.72,4,0,5,0.00
2013-8-28,84.6,70.6,64.2,45.0,35.6,32.0,41,28,11,17.72,17.72,5,0,6,0.00
2013-8-29,66.2,62.1,59.0,52.0,46.8,32.0,65,58,27,17.72,17.72,4,0,6,0.79
2013-8-30,79.7,67.7,57.7,55.0,39.6,32.0,65,40,12,17.72,17.72,6,1,8,0.00
2013-8-31,76.5,69.6,65.7,61.0,48.5,34.0,64,49,22,17.72,17.72,6,1,10,2.04
2013-9-1,78.4,70.5,65.3,59.0,49.9,32.0,66,51,18,17.72,17.72,6,0,10,4.64
2013-9-2,75.0,70.4,65.1,61.0,50.4,34.0,65,51,26,17.72,17.72,4,0,8,2.35
2013-9-3,72.7,65.5,57.6,54.0,38.9,32.0,63,37,17,17.72,17.72,0,0,5,0.00
2013-9-4,75.2,64.0,55.0,34.0,32.1,32.0,40,23,13,17.72,17.72,5,1,8,0.00
2013-9-5,69.3,59.9,51.6,32.0,32.0,32.0,31,20,15,17.72,17.72,4,0,6,0.00
2013-9-6,66.4,54.7,42.8,32.0,32.0,32.0,25,18,15,28.88,17.72,5,0,8,0.00
2013-9-7,74.8,59.7,48.0,32.0,32.0,32.0,28,19,13,28.82,28.53,6,0,8,0.00
2013-9-8,67.3,58.5,47.8,32.0,32.0,32.0,36,23,15,28.73,28.41,7,1,9,0.00
2013-9-9,66.0,53.6,41.7,32.0,32.0,32.0,29,20,15,28.85,28.73,6,1,9,0.00
2013-9-10,69.4,62.8,53.4,57.0,44.0,32.0,66,49,26,28.76,28.67,9,2,10,0.48
2013-9-11,87.8,76.0,67.6,64.0,44.6,32.0,65,39,13,28.73,28.61,8,2,10,0.40
2013-9-12,74.5,67.5,63.9,57.0,48.3,34.0,65,51,28,28.61,28.32,4,0,8,4.53
2013-9-13,69.8,62.6,54.5,55.0,41.8,32.0,65,46,22,28.41,28.26,4,0,7,0.16
2013-9-14,62.2,54.3,49.3,32.0,32.0,32.0,38,27,16,28.67,28.41,7,0,9,0.00
2013-9-15,66.6,55.0,44.6,32.0,32.0,32.0,39,26,15,28.76,28.64,6,0,8,0.00
2013-9-16,64.0,53.7,41.0,32.0,32.0,32.0,37,25,16,28.85,28.64,4,0,6,0.00
2013-9-17,61.0,47.6,36.3,32.0,32.0,32.0,31,22,16,29.00,28.85,4,0,6,0.00
2013-9-18,69.4,54.7,42.4,32.0,32.0,32.0,37,23,15,28.91,28.76,4,0,6,0.00
2013-9-19,75.4,59.6,47.5,32.0,32.0,32.0,36,22,13,28.76,28.67,4,0,6,0.00
2013-9-20,77.5,62.4,53.1,37.0,32.1,32.0,39,25,13,28.70,28.61,4,0,5,0.00
2013-9-21,70.5,61.6,53.8,34.0,32.1,32.0,42,28,14,28.64,28.32,10,3,15,0.00
2013-9-22,65.7,58.3,47.3,41.0,34.1,32.0,60,28,15,28.47,28.23,8,1,14,0.95
2013-9-23,58.5,48.5,41.7,32.0,32.0,32.0,23,19,17,28.61,28.44,6,1,11,0.00
2013-9-24,62.6,50.1,40.8,32.0,32.0,32.0,28,20,16,28.59,28.44,6,1,13,0.00
2013-9-25,67.8,54.4,45.0,32.0,32.0,32.0,28,20,15,28.59,28.50,5,0,6,0.00
2013-9-26,64.9,55.1,48.7,32.0,32.0,32.0,28,22,15,28.73,28.59,5,0,6,0.00
2013-9-27,61.7,54.9,50.7,32.0,32.0,32.0,36,26,16,28.85,28.73,3,0,5,0.00
2013-9-28,72.0,57.2,49.8,32.0,32.0,32.0,38,27,14,28.94,28.85,3,0,4,0.00
2013-9-29,70.3,55.6,47.8,45.0,34.2,32.0,72,37,14,28.85,28.70,4,0,6,0.00
2013-9-30,69.6,55.1,44.8,50.0,35.9,32.0,77,47,15,28.70,28.56,4,0,5,0.00
2013-10-1,74.1,60.3,48.7,32.0,32.0,32.0,39,25,13,28.59,28.50,6,0,10,0.00
2013-10-2,75.6,62.4,53.2,32.0,32.0,32.0,36,23,13,28.59,28.50,5,1,8,0.00
2013-10-3,73.8,59.9,50.7,32.0,32.0,32.0,32,20,13,28.70,28.59,4,0,6,0.00
2013-10-4,58.1,55.4,53.1,45.0,36.6,32.0,64,40,17,28.70,28.64,2,0,3,0.95
2013-10-5,63.3,58.0,54.1,48.0,39.3,32.0,66,50,23,28.73,28.64,2,0,4,0.00
2013-10-6,57.2,52.2,49.1,43.0,39.4,36.0,67,61,43,28.79,28.70,4,0,6,0.56
2013-10-7,70.0,59.3,51.8,57.0,43.0,32.0,69,57,23,28.70,28.38,11,2,19,0.80
2013-10-8,61.0,50.7,42.6,37.0,32.2,32.0,53,27,16,28.94,28.53,6,0,10,0.00
2013-10-9,60.6,47.7,39.0,32.0,32.0,32.0,33,23,17,29.03,28.94,2,0,4,0.00
2013-10-10,57.2,48.3,40.6,32.0,32.0,32.0,37,26,17,28.94,28.76,2,0,2,0.00
2013-10-11,68.5,54.5,45.0,32.0,32.0,32.0,31,22,15,28.76,28.67,3,0,3,0.00
2013-10-12,53.4,50.8,48.4,32.0,32.0,32.0,43,37,24,28.94,28.73,2,0,5,0.00
2013-10-13,55.9,48.4,43.0,32.0,32.0,32.0,43,34,17,29.00,28.94,3,0,6,0.00
2013-10-14,63.9,50.9,40.5,32.0,32.0,32.0,45,29,16,28.94,28.79,4,0,5,0.00
2013-10-15,64.0,56.2,50.7,32.0,32.0,32.0,38,25,16,28.85,28.76,2,0,4,0.00
2013-10-16,57.6,52.1,48.2,32.0,32.0,32.0,39,29,17,28.76,28.50,0,0,4,0.00
2013-10-17,69.6,58.0,50.5,43.0,33.2,32.0,59,30,15,28.50,28.32,7,1,10,0.00
2013-10-18,61.2,55.0,45.9,48.0,35.5,32.0,68,33,16,28.50,28.20,8,2,12,0.28
2013-10-19,63.5,50.3,39.9,32.0,32.0,32.0,32,21,16,28.56,28.32,7,1,13,0.00
2013-10-20,57.2,48.1,39.7,32.0,32.0,32.0,42,23,16,28.59,28.26,8,2,10,0.00
2013-10-21,62.6,49.0,37.2,32.0,32.0,32.0,29,20,16,28.67,28.56,8,2,11,0.00
2013-10-22,57.0,49.2,40.6,32.0,32.0,32.0,38,24,17,28.56,28.32,9,3,14,0.00
2013-10-23,49.6,41.7,34.5,32.0,32.0,32.0,22,19,17,28.35,28.17,4,0,6,0.00
2013-10-24,47.7,39.8,32.2,32.0,32.0,32.0,25,20,17,28.44,28.23,8,2,10,0.00
2013-10-25,45.0,36.8,30.7,32.0,32.0,32.0,33,23,17,28.67,28.44,7,1,9,0.00
2013-10-26,50.2,39.8,30.4,32.0,32.0,32.0,35,22,17,28.67,28.41,15,3,17,0.00
2013-10-27,51.3,42.5,35.6,32.0,32.0,32.0,19,18,17,28.61,28.32,9,2,10,0.00
2013-10-28,54.5,39.3,30.7,32.0,32.0,32.0,31,21,17,28.88,28.59,9,2,11,0.00
2013-10-29,47.3,33.5,25.7,32.0,32.0,32.0,21,20,18,28.97,28.88,5,0,6,0.00
2013-10-30,48.4,37.6,30.6,32.0,32.0,32.0,31,21,16,28.88,28.73,5,0,9,0.00
2013-10-31,57.2,46.8,35.8,50.0,37.5,32.0,76,53,31,28.76,28.35,10,3,17,0.36
2013-11-1,62.8,58.1,52.9,46.0,36.0,32.0,68,38,19,28.35,28.05,17,7,23,0.60
2013-11-2,63.1,50.3,40.8,32.0,32.0,32.0,39,26,16,28.32,28.20,6,1,9,0.08
2013-11-3,43.0,35.7,26.8,32.0,32.0,32.0,41,24,18,28.91,28.32,5,2,8,0.00
2013-11-4,41.5,29.8,22.8,32.0,32.0,32.0,22,20,18,29.18,28.91,5,0,6,0.00
2013-11-5,48.0,35.7,25.5,32.0,32.0,32.0,21,20,17,29.18,29.00,8,2,11,0.00
2013-11-6,56.7,46.4,37.6,32.0,32.0,32.0,38,25,17,29.00,28.59,10,4,15,0.00
2013-11-7,56.5,48.2,35.1,32.0,32.0,32.0,41,31,19,28.59,28.29,11,4,17,0.00
2013-11-8,46.2,34.0,28.0,32.0,32.0,32.0,23,20,17,28.61,28.38,8,2,10,0.00
2013-11-9,40.6,33.4,26.2,32.0,32.0,32.0,21,20,18,28.70,28.53,6,1,6,0.00
2013-11-10,45.1,39.7,35.6,32.0,32.0,32.0,39,23,18,28.53,28.29,8,2,13,0.00
2013-11-11,50.2,39.8,32.5,32.0,32.0,32.0,20,19,17,28.61,28.41,8,3,12,0.00
2013-11-12,40.6,29.6,21.4,32.0,32.0,32.0,30,21,18,28.70,28.41,8,2,11,0.00
2013-11-13,33.3,24.3,18.1,32.0,32.0,32.0,23,22,20,28.79,28.64,6,2,10,0.00
2013-11-14,48.7,35.3,24.6,32.0,32.0,32.0,22,20,18,28.64,28.56,9,3,12,0.00
2013-11-15,54.5,40.5,32.2,32.0,32.0,32.0,21,19,18,28.73,28.61,10,2,10,0.00
2013-11-16,59.2,44.6,37.4,32.0,32.0,32.0,19,18,17,28.85,28.70,6,0,6,0.00
2013-11-17,51.1,44.9,37.6,39.0,32.4,32.0,61,35,19,28.82,28.41,5,0,9,0.00
2013-11-18,59.7,52.4,41.5,50.0,35.8,32.0,75,35,16,28.41,28.11,12,3,17,1.11
2013-11-19,41.5,33.3,24.8,32.0,32.0,32.0,22,20,18,28.82,28.23,9,3,11,0.00
2013-11-20,39.9,27.8,21.4,32.0,32.0,32.0,22,21,18,29.09,28.82,6,1,8,0.00
2013-11-21,45.1,32.2,22.5,32.0,32.0,32.0,22,20,18,29.12,28.88,7,2,10,0.00
2013-11-22,43.0,39.4,35.6,34.0,32.0,32.0,68,43,19,28.88,28.35,5,1,10,0.20
2013-11-23,43.0,32.9,23.2,34.0,32.1,32.0,68,24,19,28.47,28.29,7,3,13,0.00
2013-11-24,23.4,17.9,12.9,32.0,32.0,32.0,24,23,22,28.64,28.29,10,4,18,0.00
2013-11-25,30.6,19.9,12.6,32.0,32.0,32.0,24,22,20,28.82,28.64,11,3,13,0.00
2013-11-26,32.5,27.1,23.9,32.0,32.0,32.0,42,27,20,28.79,28.56,8,2,13,0.00
2013-11-27,51.3,39.6,30.7,43.0,34.0,32.0,74,62,31,28.56,27.85,7,1,10,2.34
2013-11-28,30.9,23.9,16.7,32.0,32.0,32.0,34,23,21,28.59,27.96,8,3,14,0.00
2013-11-29,30.7,20.0,12.7,32.0,32.0,32.0,24,22,20,29.15,28.59,7,1,8,0.00
2013-11-30,32.0,20.0,10.2,32.0,32.0,32.0,24,22,20,29.21,28.88,8,1,10,0.00
2013-12-1,37.0,31.4,25.5,32.0,32.0,32.0,42,33,21,28.88,28.56,5,0,6,0.00
2013-12-2,35.8,33.4,32.0,32.0,32.0,32.0,57,52,42,28.56,28.44,2,0,4,0.00
2013-12-3,45.0,34.2,29.1,32.0,32.0,32.0,61,42,18,28.47,28.38,4,0,8,0.00
2013-12-4,38.8,31.3,26.8,32.0,32.0,32.0,41,26,19,28.70,28.47,5,0,8,0.00
2013-12-5,51.3,40.2,32.2,45.0,35.1,32.0,78,49,22,28.70,28.47,8,1,10,0.00
2013-12-6,51.1,42.3,30.9,46.0,31.1,0.0,81,64,19,28.68,28.41,8,1,11,0.04
2013-12-7,37.4,28.4,19.8,10.8,-0.7,-11.2,44,29,19,28.91,28.59,4,0,8,0.00
2013-12-8,25.5,21.3,16.8,-7.5,-14.5,-99.9,25,21,21,29.03,28.91,3,0,8,0.00
2013-12-9,32.7,28.1,21.0,20.7,6.4,-11.3,64,40,22,28.94,28.41,1,0,8,0.00
2013-12-10,31.5,26.1,16.2,21.1,-0.6,-15.0,65,32,22,28.47,28.29,0,0,0,0.00
2013-12-11,29.2,19.8,14.2,-4.1,-9.6,-15.9,36,26,20,28.65,28.47,5,0,11,0.00
2013-12-12,23.2,14.1,9.1,-4.3,-13.8,-19.9,37,27,22,28.71,28.50,5,1,14,0.00
2013-12-13,23.3,14.3,7.0,-9.9,-16.2,-22.2,26,24,22,28.83,28.41,7,2,13,0.00
2013-12-14,14.1,8.2,3.2,-16.0,-21.0,-25.4,24,24,24,29.00,28.60,4,1,8,0.00
2013-12-15,23.5,18.5,12.2,-0.1,-7.9,-17.6,37,30,22,28.59,28.03,6,2,15,0.00
2013-12-16,23.9,16.6,8.8,-3.4,-13.8,-20.6,34,24,22,28.62,28.20,6,3,17,0.00
2013-12-17,12.6,6.7,-1.1,-17.3,-22.4,-29.1,24,24,24,28.68,28.44,3,0,9,0.00
2013-12-18,29.8,19.8,10.6,-4.8,-9.4,-19.0,37,27,20,28.53,28.38,4,2,11,0.04
2013-12-19,36.2,28.1,20.8,-1.6,-5.0,-9.3,33,23,19,28.59,28.44,8,4,15,0.00
2013-12-20,44.2,35.6,28.2,5.2,0.1,-6.8,31,22,18,28.62,28.44,6,2,14,0.29
2013-12-21,52.2,43.3,36.7,35.6,11.7,-0.9,69,30,18,28.47,28.38,7,3,13,0.00
2013-12-22,56.5,46.6,34.3,50.0,40.2,28.5,80,78,64,28.50,28.26,8,3,15,0.08
2013-12-23,37.4,33.9,32.0,32.0,28.3,26.2,80,79,79,28.62,28.47,3,0,8,0.41
2013-12-24,31.9,25.9,18.9,26.1,-1.6,-13.5,79,33,16,28.68,28.53,0,0,0,0.00
2013-12-25,21.9,14.6,7.0,-11.2,-16.0,-22.1,24,23,22,28.94,28.68,0,0,0,0.00
2013-12-26,28.2,21.6,14.5,3.1,-5.5,-15.6,36,30,22,28.91,28.56,4,0,11,0.00
2013-12-27,30.2,24.0,17.1,-3.4,-7.6,-12.7,34,24,20,28.71,28.65,4,0,11,0.00
2013-12-28,41.5,30.3,21.5,1.2,-3.8,-10.0,33,23,18,28.68,28.50,7,2,13,0.08
2013-12-29,38.7,33.9,30.9,23.3,5.5,-5.0,68,33,19,28.53,28.03,7,1,13,0.91
2013-12-30,33.9,27.4,11.3,24.2,1.5,-18.5,69,36,20,28.62,28.09,0,0,4,0.04
2013-12-31,22.0,13.4,5.9,-10.9,-16.8,-23.0,26,24,22,28.62,28.47,0,0,0,0.00
2014-1-1,23.7,14.8,10.4,-9.5,-15.7,-19.2,24,24,22,28.80,28.59,6,0,40,0.00
2014-1-2,15.3,8.0,-1.8,-15.1,-21.2,-29.7,24,24,24,28.80,28.29,5,2,13,0.00